Year,Month,Day,Hour,Minute,Value (Times are PST for temperature in C)
2009,06,10,00,00,15.00
2009,06,10,00,01,15.00
2009,06,10,00,02,14.90
2009,06,10,00,03,14.90
2009,06,10,00,04,14.90
2009,06,10,00,05,14.90
2009,06,10,00,06,14.90
2009,06,10,00,07,14.90
2009,06,10,00,08,14.90
2009,06,10,00,09,14.90
2009,06,10,00,10,14.90
2009,06,10,00,11,14.90
2009,06,10,00,12,14.90
2009,06,10,00,13,14.90
2009,06,10,00,14,14.90
2009,06,10,00,15,14.90
2009,06,10,00,16,14.90
2009,06,10,00,17,14.80
2009,06,10,00,18,14.80
2009,06,10,00,19,14.80
2009,06,10,00,20,14.80
2009,06,10,00,21,14.80
2009,06,10,00,22,14.80
2009,06,10,00,23,14.80
2009,06,10,00,24,14.80
2009,06,10,00,25,14.80
2009,06,10,00,26,14.80
2009,06,10,00,27,14.80
2009,06,10,00,28,14.80
2009,06,10,00,29,14.80
2009,06,10,00,30,14.80
2009,06,10,00,31,14.80
2009,06,10,00,32,14.80
2009,06,10,00,33,14.80
2009,06,10,00,34,14.80
2009,06,10,00,35,14.80
2009,06,10,00,36,14.80
2009,06,10,00,37,14.80
2009,06,10,00,38,14.80
2009,06,10,00,39,14.80
2009,06,10,00,40,14.80
2009,06,10,00,41,14.80
2009,06,10,00,42,14.80
2009,06,10,00,43,14.80
2009,06,10,00,44,14.80
2009,06,10,00,45,14.80
2009,06,10,00,46,14.80
2009,06,10,00,47,14.80
2009,06,10,00,48,14.80
2009,06,10,00,49,14.80
2009,06,10,00,50,14.80
2009,06,10,00,51,14.80
2009,06,10,00,52,14.80
2009,06,10,00,53,14.80
2009,06,10,00,54,14.80
2009,06,10,00,55,14.80
2009,06,10,00,56,14.80
2009,06,10,00,57,14.80
2009,06,10,00,58,14.80
2009,06,10,00,59,14.80
2009,06,10,01,00,14.90
2009,06,10,01,01,14.90
2009,06,10,01,02,14.90
2009,06,10,01,03,15.00
2009,06,10,01,04,15.00
2009,06,10,01,05,15.10
2009,06,10,01,06,15.10
2009,06,10,01,07,15.10
2009,06,10,01,08,15.20
2009,06,10,01,09,15.20
2009,06,10,01,10,15.20
2009,06,10,01,11,15.20
2009,06,10,01,12,15.20
2009,06,10,01,13,15.20
2009,06,10,01,14,15.30
2009,06,10,01,15,15.30
2009,06,10,01,16,15.30
2009,06,10,01,17,15.30
2009,06,10,01,18,15.20
2009,06,10,01,19,15.20
2009,06,10,01,20,15.20
2009,06,10,01,21,15.20
2009,06,10,01,22,15.20
2009,06,10,01,23,15.20
2009,06,10,01,24,15.10
2009,06,10,01,25,15.10
2009,06,10,01,26,15.10
2009,06,10,01,27,15.10
2009,06,10,01,28,15.00
2009,06,10,01,29,15.00
2009,06,10,01,30,15.00
2009,06,10,01,31,15.00
2009,06,10,01,32,15.00
2009,06,10,01,33,15.00
2009,06,10,01,34,14.90
2009,06,10,01,35,14.90
2009,06,10,01,36,14.90
2009,06,10,01,37,14.90
2009,06,10,01,38,14.90
2009,06,10,01,39,14.80
2009,06,10,01,40,14.80
2009,06,10,01,41,14.80
2009,06,10,01,42,14.80
2009,06,10,01,43,14.80
2009,06,10,01,44,14.80
2009,06,10,01,45,14.80
2009,06,10,01,46,14.80
2009,06,10,01,47,14.80
2009,06,10,01,48,14.70
2009,06,10,01,49,14.70
2009,06,10,01,50,14.70
2009,06,10,01,51,14.70
2009,06,10,01,52,14.60
2009,06,10,01,53,14.60
2009,06,10,01,54,14.60
2009,06,10,01,55,14.60
2009,06,10,01,56,14.60
2009,06,10,01,57,14.50
2009,06,10,01,58,14.50
2009,06,10,01,59,14.50
2009,06,10,02,00,14.50
2009,06,10,02,01,14.50
2009,06,10,02,02,14.50
2009,06,10,02,03,14.40
2009,06,10,02,04,14.40
2009,06,10,02,05,14.40
2009,06,10,02,06,14.40
2009,06,10,02,07,14.40
2009,06,10,02,08,14.40
2009,06,10,02,09,14.30
2009,06,10,02,10,14.30
2009,06,10,02,11,14.30
2009,06,10,02,12,14.30
2009,06,10,02,13,14.30
2009,06,10,02,14,14.20
2009,06,10,02,15,14.20
2009,06,10,02,16,14.20
2009,06,10,02,17,14.20
2009,06,10,02,18,14.20
2009,06,10,02,19,14.20
2009,06,10,02,20,14.20
2009,06,10,02,21,14.20
2009,06,10,02,22,14.20
2009,06,10,02,23,14.20
2009,06,10,02,24,14.20
2009,06,10,02,25,14.10
2009,06,10,02,26,14.10
2009,06,10,02,27,14.10
2009,06,10,02,28,14.10
2009,06,10,02,29,14.10
2009,06,10,02,30,14.00
2009,06,10,02,31,14.00
2009,06,10,02,32,14.00
2009,06,10,02,33,14.00
2009,06,10,02,34,14.00
2009,06,10,02,35,14.00
2009,06,10,02,36,13.90
2009,06,10,02,37,13.90
2009,06,10,02,38,13.90
2009,06,10,02,39,13.90
2009,06,10,02,40,13.90
2009,06,10,02,41,13.90
2009,06,10,02,42,13.80
2009,06,10,02,43,13.80
2009,06,10,02,44,13.80
2009,06,10,02,45,13.80
2009,06,10,02,46,13.80
2009,06,10,02,47,13.70
2009,06,10,02,48,13.70
2009,06,10,02,49,13.70
2009,06,10,02,50,13.70
2009,06,10,02,51,13.70
2009,06,10,02,52,13.70
2009,06,10,02,53,13.70
2009,06,10,02,54,13.70
2009,06,10,02,55,13.60
2009,06,10,02,56,13.60
2009,06,10,02,57,13.60
2009,06,10,02,58,13.60
2009,06,10,02,59,13.60
2009,06,10,03,00,13.60
2009,06,10,03,01,13.60
2009,06,10,03,02,13.60
2009,06,10,03,03,13.60
2009,06,10,03,04,13.60
2009,06,10,03,05,13.60
2009,06,10,03,06,13.50
2009,06,10,03,07,13.50
2009,06,10,03,08,13.50
2009,06,10,03,09,13.50
2009,06,10,03,10,13.50
2009,06,10,03,11,13.50
2009,06,10,03,12,13.50
2009,06,10,03,13,13.50
2009,06,10,03,14,13.50
2009,06,10,03,15,13.50
2009,06,10,03,16,13.50
2009,06,10,03,17,13.40
2009,06,10,03,18,13.40
2009,06,10,03,19,13.40
2009,06,10,03,20,13.40
2009,06,10,03,21,13.30
2009,06,10,03,22,13.30
2009,06,10,03,23,13.30
2009,06,10,03,24,13.30
2009,06,10,03,25,13.30
2009,06,10,03,26,13.30
2009,06,10,03,27,13.20
2009,06,10,03,28,13.20
2009,06,10,03,29,13.20
2009,06,10,03,30,13.20
2009,06,10,03,31,13.20
2009,06,10,03,32,13.20
2009,06,10,03,33,13.10
2009,06,10,03,34,13.10
2009,06,10,03,35,13.10
2009,06,10,03,36,13.10
2009,06,10,03,37,13.10
2009,06,10,03,38,13.10
2009,06,10,03,39,13.00
2009,06,10,03,40,13.00
2009,06,10,03,41,13.00
2009,06,10,03,42,13.00
2009,06,10,03,43,13.00
2009,06,10,03,44,13.00
2009,06,10,03,45,13.00
2009,06,10,03,46,13.00
2009,06,10,03,47,13.00
2009,06,10,03,48,13.00
2009,06,10,03,49,13.00
2009,06,10,03,50,13.00
2009,06,10,03,51,13.00
2009,06,10,03,52,13.00
2009,06,10,03,53,13.00
2009,06,10,03,54,12.90
2009,06,10,03,55,12.90
2009,06,10,03,56,12.90
2009,06,10,03,57,12.90
2009,06,10,03,58,12.90
2009,06,10,03,59,12.90
2009,06,10,04,00,12.90
2009,06,10,04,01,12.90
2009,06,10,04,02,12.90
2009,06,10,04,03,12.80
2009,06,10,04,04,12.80
2009,06,10,04,05,12.80
2009,06,10,04,06,12.80
2009,06,10,04,07,12.80
2009,06,10,04,08,12.80
2009,06,10,04,09,12.80
2009,06,10,04,10,12.80
2009,06,10,04,11,12.80
2009,06,10,04,12,12.80
2009,06,10,04,13,12.80
2009,06,10,04,14,12.80
2009,06,10,04,15,12.80
2009,06,10,04,16,12.80
2009,06,10,04,17,12.80
2009,06,10,04,18,12.80
2009,06,10,04,19,12.80
2009,06,10,04,20,12.80
2009,06,10,04,21,12.80
2009,06,10,04,22,12.80
2009,06,10,04,23,12.80
2009,06,10,04,24,12.80
2009,06,10,04,25,12.70
2009,06,10,04,26,12.70
2009,06,10,04,27,12.70
2009,06,10,04,28,12.70
2009,06,10,04,29,12.70
2009,06,10,04,30,12.70
2009,06,10,04,31,12.70
2009,06,10,04,32,12.60
2009,06,10,04,33,12.60
2009,06,10,04,34,12.60
2009,06,10,04,35,12.60
2009,06,10,04,36,12.60
2009,06,10,04,37,12.60
2009,06,10,04,38,12.60
2009,06,10,04,39,12.60
2009,06,10,04,40,12.60
2009,06,10,04,41,12.60
2009,06,10,04,42,12.60
2009,06,10,04,43,12.60
2009,06,10,04,44,12.60
2009,06,10,04,45,12.60
2009,06,10,04,46,12.60
2009,06,10,04,47,12.60
2009,06,10,04,48,12.60
2009,06,10,04,49,12.60
2009,06,10,04,50,12.60
2009,06,10,04,51,12.60
2009,06,10,04,52,12.60
2009,06,10,04,53,12.60
2009,06,10,04,54,12.60
2009,06,10,04,55,12.60
2009,06,10,04,56,12.60
2009,06,10,04,57,12.60
2009,06,10,04,58,12.50
2009,06,10,04,59,12.50
2009,06,10,05,00,12.50
2009,06,10,05,01,12.50
2009,06,10,05,02,12.50
2009,06,10,05,03,12.50
2009,06,10,05,04,12.50
2009,06,10,05,05,12.40
2009,06,10,05,06,12.40
2009,06,10,05,07,12.40
2009,06,10,05,08,12.40
2009,06,10,05,09,12.40
2009,06,10,05,10,12.40
2009,06,10,05,11,12.40
2009,06,10,05,12,12.40
2009,06,10,05,13,12.30
2009,06,10,05,14,12.30
2009,06,10,05,15,12.30
2009,06,10,05,16,12.30
2009,06,10,05,17,12.30
2009,06,10,05,18,12.30
2009,06,10,05,19,12.30
2009,06,10,05,20,12.30
2009,06,10,05,21,12.30
2009,06,10,05,22,12.30
2009,06,10,05,23,12.30
2009,06,10,05,24,12.30
2009,06,10,05,25,12.30
2009,06,10,05,26,12.20
2009,06,10,05,27,12.20
2009,06,10,05,28,12.20
2009,06,10,05,29,12.20
2009,06,10,05,30,12.20
2009,06,10,05,31,12.20
2009,06,10,05,32,12.20
2009,06,10,05,33,12.20
2009,06,10,05,34,12.20
2009,06,10,05,35,12.30
2009,06,10,05,36,12.30
2009,06,10,05,37,12.30
2009,06,10,05,38,12.30
2009,06,10,05,39,12.30
2009,06,10,05,40,12.30
2009,06,10,05,41,12.20
2009,06,10,05,42,12.20
2009,06,10,05,43,12.20
2009,06,10,05,44,12.20
2009,06,10,05,45,12.20
2009,06,10,05,46,12.20
2009,06,10,05,47,12.20
2009,06,10,05,48,12.20
2009,06,10,05,49,12.20
2009,06,10,05,50,12.20
2009,06,10,05,51,12.20
2009,06,10,05,52,12.20
2009,06,10,05,53,12.20
2009,06,10,05,54,12.20
2009,06,10,05,55,12.20
2009,06,10,05,56,12.20
2009,06,10,05,57,12.20
2009,06,10,05,58,12.20
2009,06,10,05,59,12.20
2009,06,10,06,00,12.20
2009,06,10,06,01,12.20
2009,06,10,06,02,12.20
2009,06,10,06,03,12.20
2009,06,10,06,04,12.20
2009,06,10,06,05,12.20
2009,06,10,06,06,12.20
2009,06,10,06,07,12.20
2009,06,10,06,08,12.20
2009,06,10,06,09,12.20
2009,06,10,06,10,12.20
2009,06,10,06,11,12.20
2009,06,10,06,12,12.20
2009,06,10,06,13,12.20
2009,06,10,06,14,12.20
2009,06,10,06,15,12.20
2009,06,10,06,16,12.20
2009,06,10,06,17,12.20
2009,06,10,06,18,12.30
2009,06,10,06,19,12.30
2009,06,10,06,20,12.30
2009,06,10,06,21,12.30
2009,06,10,06,22,12.30
2009,06,10,06,23,12.30
2009,06,10,06,24,12.30
2009,06,10,06,25,12.30
2009,06,10,06,26,12.30
2009,06,10,06,27,12.30
2009,06,10,06,28,12.30
2009,06,10,06,29,12.30
2009,06,10,06,30,12.40
2009,06,10,06,31,12.40
2009,06,10,06,32,12.40
2009,06,10,06,33,12.40
2009,06,10,06,34,12.40
2009,06,10,06,35,12.40
2009,06,10,06,36,12.50
2009,06,10,06,37,12.50
2009,06,10,06,38,12.50
2009,06,10,06,39,12.50
2009,06,10,06,40,12.50
2009,06,10,06,41,12.60
2009,06,10,06,42,12.60
2009,06,10,06,43,12.70
2009,06,10,06,44,12.70
2009,06,10,06,45,12.70
2009,06,10,06,46,12.70
2009,06,10,06,47,12.70
2009,06,10,06,48,12.80
2009,06,10,06,49,12.80
2009,06,10,06,50,12.70
2009,06,10,06,51,12.70
2009,06,10,06,52,12.80
2009,06,10,06,53,12.80
2009,06,10,06,54,12.80
2009,06,10,06,55,12.80
2009,06,10,06,56,12.80
2009,06,10,06,57,12.80
2009,06,10,06,58,12.80
2009,06,10,06,59,12.80
2009,06,10,07,00,12.90
2009,06,10,07,01,12.90
2009,06,10,07,02,12.90
2009,06,10,07,03,12.90
2009,06,10,07,04,12.90
2009,06,10,07,05,12.90
2009,06,10,07,06,12.90
2009,06,10,07,07,12.90
2009,06,10,07,08,12.90
2009,06,10,07,09,13.00
2009,06,10,07,10,13.00
2009,06,10,07,11,13.00
2009,06,10,07,12,13.00
2009,06,10,07,13,13.10
2009,06,10,07,14,13.10
2009,06,10,07,15,13.20
2009,06,10,07,16,13.20
2009,06,10,07,17,13.30
2009,06,10,07,18,13.30
2009,06,10,07,19,13.30
2009,06,10,07,20,13.30
2009,06,10,07,21,13.30
2009,06,10,07,22,13.30
2009,06,10,07,23,13.30
2009,06,10,07,24,13.30
2009,06,10,07,25,13.30
2009,06,10,07,26,13.30
2009,06,10,07,27,13.30
2009,06,10,07,28,13.30
2009,06,10,07,29,13.30
2009,06,10,07,30,13.30
2009,06,10,07,31,13.30
2009,06,10,07,32,13.30
2009,06,10,07,33,13.40
2009,06,10,07,34,13.40
2009,06,10,07,35,13.40
2009,06,10,07,36,13.40
2009,06,10,07,37,13.50
2009,06,10,07,38,13.50
2009,06,10,07,39,13.50
2009,06,10,07,40,13.50
2009,06,10,07,41,13.60
2009,06,10,07,42,13.60
2009,06,10,07,43,13.70
2009,06,10,07,44,13.70
2009,06,10,07,45,13.80
2009,06,10,07,46,13.80
2009,06,10,07,47,13.90
2009,06,10,07,48,13.90
2009,06,10,07,49,14.00
2009,06,10,07,50,14.10
2009,06,10,07,51,14.10
2009,06,10,07,52,14.20
2009,06,10,07,53,14.10
2009,06,10,07,54,14.10
2009,06,10,07,55,14.20
2009,06,10,07,56,14.20
2009,06,10,07,57,14.20
2009,06,10,07,58,14.20
2009,06,10,07,59,14.20
2009,06,10,08,00,14.20
2009,06,10,08,01,14.20
2009,06,10,08,02,14.20
2009,06,10,08,03,14.20
2009,06,10,08,04,14.20
2009,06,10,08,05,14.20
2009,06,10,08,06,14.20
2009,06,10,08,07,14.40
2009,06,10,08,08,14.40
2009,06,10,08,09,14.50
2009,06,10,08,10,14.50
2009,06,10,08,11,14.40
2009,06,10,08,12,14.50
2009,06,10,08,13,14.50
2009,06,10,08,14,14.40
2009,06,10,08,15,14.40
2009,06,10,08,16,14.40
2009,06,10,08,17,14.40
2009,06,10,08,18,14.30
2009,06,10,08,19,14.20
2009,06,10,08,20,14.20
2009,06,10,08,21,14.30
2009,06,10,08,22,14.30
2009,06,10,08,23,14.40
2009,06,10,08,24,14.50
2009,06,10,08,25,14.50
2009,06,10,08,26,14.50
2009,06,10,08,27,14.50
2009,06,10,08,28,14.50
2009,06,10,08,29,14.60
2009,06,10,08,30,14.60
2009,06,10,08,31,14.70
2009,06,10,08,32,14.70
2009,06,10,08,33,14.70
2009,06,10,08,34,14.70
2009,06,10,08,35,14.80
2009,06,10,08,36,14.80
2009,06,10,08,37,14.80
2009,06,10,08,38,14.80
2009,06,10,08,39,14.90
2009,06,10,08,40,14.90
2009,06,10,08,41,14.90
2009,06,10,08,42,14.90
2009,06,10,08,43,14.90
2009,06,10,08,44,14.90
2009,06,10,08,45,14.90
2009,06,10,08,46,15.00
2009,06,10,08,47,15.10
2009,06,10,08,48,15.30
2009,06,10,08,49,15.40
2009,06,10,08,50,15.50
2009,06,10,08,51,15.60
2009,06,10,08,52,15.60
2009,06,10,08,53,15.60
2009,06,10,08,54,15.60
2009,06,10,08,55,15.60
2009,06,10,08,56,15.70
2009,06,10,08,57,15.70
2009,06,10,08,58,15.80
2009,06,10,08,59,15.80
2009,06,10,09,00,15.80
2009,06,10,09,01,15.80
2009,06,10,09,02,15.80
2009,06,10,09,03,15.80
2009,06,10,09,04,15.80
2009,06,10,09,05,16.00
2009,06,10,09,06,16.10
2009,06,10,09,07,16.20
2009,06,10,09,08,16.20
2009,06,10,09,09,16.20
2009,06,10,09,10,16.30
2009,06,10,09,11,16.40
2009,06,10,09,12,16.40
2009,06,10,09,13,16.40
2009,06,10,09,14,16.40
2009,06,10,09,15,16.40
2009,06,10,09,16,16.40
2009,06,10,09,17,16.40
2009,06,10,09,18,16.30
2009,06,10,09,19,16.20
2009,06,10,09,20,16.20
2009,06,10,09,21,16.20
2009,06,10,09,22,16.10
2009,06,10,09,23,16.10
2009,06,10,09,24,16.20
2009,06,10,09,25,16.20
2009,06,10,09,26,16.30
2009,06,10,09,27,16.20
2009,06,10,09,28,16.20
2009,06,10,09,29,16.10
2009,06,10,09,30,16.20
2009,06,10,09,31,16.20
2009,06,10,09,32,16.10
2009,06,10,09,33,16.10
2009,06,10,09,34,16.10
2009,06,10,09,35,16.10
2009,06,10,09,36,16.10
2009,06,10,09,37,16.20
2009,06,10,09,38,16.20
2009,06,10,09,39,16.20
2009,06,10,09,40,16.20
2009,06,10,09,41,16.20
2009,06,10,09,42,16.30
2009,06,10,09,43,16.40
2009,06,10,09,44,16.40
2009,06,10,09,45,16.50
2009,06,10,09,46,16.50
2009,06,10,09,47,16.40
2009,06,10,09,48,16.40
2009,06,10,09,49,16.50
2009,06,10,09,50,16.60
2009,06,10,09,51,16.70
2009,06,10,09,52,16.90
2009,06,10,09,53,17.00
2009,06,10,09,54,17.10
2009,06,10,09,55,17.20
2009,06,10,09,56,17.30
2009,06,10,09,57,17.30
2009,06,10,09,58,17.30
2009,06,10,09,59,17.20
2009,06,10,10,00,17.10
2009,06,10,10,01,17.00
2009,06,10,10,02,17.00
2009,06,10,10,03,17.00
2009,06,10,10,04,17.10
2009,06,10,10,05,17.20
2009,06,10,10,06,17.20
2009,06,10,10,07,17.20
2009,06,10,10,08,17.30
2009,06,10,10,09,17.40
2009,06,10,10,10,17.40
2009,06,10,10,11,17.40
2009,06,10,10,12,17.30
2009,06,10,10,13,17.40
2009,06,10,10,14,17.50
2009,06,10,10,15,17.40
2009,06,10,10,16,17.40
2009,06,10,10,17,17.40
2009,06,10,10,18,17.50
2009,06,10,10,19,17.50
2009,06,10,10,20,17.70
2009,06,10,10,21,17.80
2009,06,10,10,22,17.90
2009,06,10,10,23,17.80
2009,06,10,10,24,17.90
2009,06,10,10,25,17.90
2009,06,10,10,26,17.80
2009,06,10,10,27,17.70
2009,06,10,10,28,17.60
2009,06,10,10,29,17.60
2009,06,10,10,30,17.70
2009,06,10,10,31,17.70
2009,06,10,10,32,17.70
2009,06,10,10,33,17.70
2009,06,10,10,34,17.70
2009,06,10,10,35,17.70
2009,06,10,10,36,17.60
2009,06,10,10,37,17.70
2009,06,10,10,38,17.80
2009,06,10,10,39,17.90
2009,06,10,10,40,17.90
2009,06,10,10,41,17.90
2009,06,10,10,42,17.90
2009,06,10,10,43,17.90
2009,06,10,10,44,17.90
2009,06,10,10,45,18.00
2009,06,10,10,46,18.10
2009,06,10,10,47,18.00
2009,06,10,10,48,17.90
2009,06,10,10,49,18.10
2009,06,10,10,50,18.10
2009,06,10,10,51,18.00
2009,06,10,10,52,17.90
2009,06,10,10,53,17.90
2009,06,10,10,54,17.90
2009,06,10,10,55,17.80
2009,06,10,10,56,17.80
2009,06,10,10,57,17.90
2009,06,10,10,58,17.90
2009,06,10,10,59,17.90
2009,06,10,11,00,17.90
2009,06,10,11,01,17.90
2009,06,10,11,02,18.00
2009,06,10,11,03,18.10
2009,06,10,11,04,18.10
2009,06,10,11,05,18.10
2009,06,10,11,06,18.20
2009,06,10,11,07,18.30
2009,06,10,11,08,18.50
2009,06,10,11,09,18.60
2009,06,10,11,10,18.70
2009,06,10,11,11,18.90
2009,06,10,11,12,18.90
2009,06,10,11,13,18.90
2009,06,10,11,14,19.00
2009,06,10,11,15,19.20
2009,06,10,11,16,19.40
2009,06,10,11,17,19.40
2009,06,10,11,18,19.30
2009,06,10,11,19,19.20
2009,06,10,11,20,19.10
2009,06,10,11,21,19.10
2009,06,10,11,22,19.10
2009,06,10,11,23,19.10
2009,06,10,11,24,19.00
2009,06,10,11,25,18.90
2009,06,10,11,26,18.90
2009,06,10,11,27,18.90
2009,06,10,11,28,19.00
2009,06,10,11,29,19.10
2009,06,10,11,30,19.20
2009,06,10,11,31,19.30
2009,06,10,11,32,19.60
2009,06,10,11,33,19.60
2009,06,10,11,34,19.50
2009,06,10,11,35,19.40
2009,06,10,11,36,19.30
2009,06,10,11,37,19.30
2009,06,10,11,38,19.40
2009,06,10,11,39,19.50
2009,06,10,11,40,19.70
2009,06,10,11,41,19.60
2009,06,10,11,42,19.50
2009,06,10,11,43,19.40
2009,06,10,11,44,19.30
2009,06,10,11,45,19.30
2009,06,10,11,46,19.30
2009,06,10,11,47,19.20
2009,06,10,11,48,19.20
2009,06,10,11,49,19.10
2009,06,10,11,50,19.10
2009,06,10,11,51,19.10
2009,06,10,11,52,19.10
2009,06,10,11,53,19.10
2009,06,10,11,54,19.10
2009,06,10,11,55,19.10
2009,06,10,11,56,19.10
2009,06,10,11,57,19.20
2009,06,10,11,58,19.40
2009,06,10,11,59,19.60
2009,06,10,12,00,19.70
2009,06,10,12,01,19.60
2009,06,10,12,02,19.60
2009,06,10,12,03,19.60
2009,06,10,12,04,19.50
2009,06,10,12,05,19.40
2009,06,10,12,06,19.40
2009,06,10,12,07,19.30
2009,06,10,12,08,19.30
2009,06,10,12,09,19.20
2009,06,10,12,10,19.30
2009,06,10,12,11,19.40
2009,06,10,12,12,19.50
2009,06,10,12,13,19.60
2009,06,10,12,14,19.60
2009,06,10,12,15,19.70
2009,06,10,12,16,19.80
2009,06,10,12,17,19.90
2009,06,10,12,18,20.00
2009,06,10,12,19,20.10
2009,06,10,12,20,19.90
2009,06,10,12,21,19.80
2009,06,10,12,22,19.80
2009,06,10,12,23,19.80
2009,06,10,12,24,19.80
2009,06,10,12,25,19.90
2009,06,10,12,26,19.90
2009,06,10,12,27,19.90
2009,06,10,12,28,19.90
2009,06,10,12,29,19.90
2009,06,10,12,30,19.90
2009,06,10,12,31,20.00
2009,06,10,12,32,20.10
2009,06,10,12,33,20.30
2009,06,10,12,34,20.30
2009,06,10,12,35,20.20
2009,06,10,12,36,20.10
2009,06,10,12,37,20.00
2009,06,10,12,38,19.90
2009,06,10,12,39,19.90
2009,06,10,12,40,19.90
2009,06,10,12,41,19.90
2009,06,10,12,42,19.90
2009,06,10,12,43,20.00
2009,06,10,12,44,20.10
2009,06,10,12,45,20.10
2009,06,10,12,46,20.20
2009,06,10,12,47,20.20
2009,06,10,12,48,20.20
2009,06,10,12,49,20.20
2009,06,10,12,50,20.20
2009,06,10,12,51,20.30
2009,06,10,12,52,20.40
2009,06,10,12,53,20.50
2009,06,10,12,54,20.70
2009,06,10,12,55,20.70
2009,06,10,12,56,20.80
2009,06,10,12,57,20.90
2009,06,10,12,58,20.90
2009,06,10,12,59,21.00
2009,06,10,13,00,21.00
2009,06,10,13,01,21.00
2009,06,10,13,02,20.80
2009,06,10,13,03,20.80
2009,06,10,13,04,20.70
2009,06,10,13,05,20.70
2009,06,10,13,06,20.70
2009,06,10,13,07,20.60
2009,06,10,13,08,20.50
2009,06,10,13,09,20.50
2009,06,10,13,10,20.40
2009,06,10,13,11,20.30
2009,06,10,13,12,20.40
2009,06,10,13,13,20.40
2009,06,10,13,14,20.40
2009,06,10,13,15,20.30
2009,06,10,13,16,20.30
2009,06,10,13,17,20.20
2009,06,10,13,18,20.20
2009,06,10,13,19,20.20
2009,06,10,13,20,20.30
2009,06,10,13,21,20.40
2009,06,10,13,22,20.50
2009,06,10,13,23,20.60
2009,06,10,13,24,20.60
2009,06,10,13,25,20.50
2009,06,10,13,26,20.70
2009,06,10,13,27,20.80
2009,06,10,13,28,20.90
2009,06,10,13,29,20.80
2009,06,10,13,30,20.70
2009,06,10,13,31,20.50
2009,06,10,13,32,20.40
2009,06,10,13,33,20.50
2009,06,10,13,34,20.50
2009,06,10,13,35,20.40
2009,06,10,13,36,20.30
2009,06,10,13,37,20.30
2009,06,10,13,38,20.30
2009,06,10,13,39,20.30
2009,06,10,13,40,20.30
2009,06,10,13,41,20.50
2009,06,10,13,42,20.60
2009,06,10,13,43,20.70
2009,06,10,13,44,20.70
2009,06,10,13,45,20.80
2009,06,10,13,46,20.90
2009,06,10,13,47,20.90
2009,06,10,13,48,20.90
2009,06,10,13,49,20.90
2009,06,10,13,50,20.90
2009,06,10,13,51,20.90
2009,06,10,13,52,20.80
2009,06,10,13,53,20.70
2009,06,10,13,54,20.50
2009,06,10,13,55,20.60
2009,06,10,13,56,20.60
2009,06,10,13,57,20.50
2009,06,10,13,58,20.60
2009,06,10,13,59,20.60
2009,06,10,14,00,20.70
2009,06,10,14,01,20.70
2009,06,10,14,02,20.80
2009,06,10,14,03,20.80
2009,06,10,14,04,20.70
2009,06,10,14,05,20.60
2009,06,10,14,06,20.60
2009,06,10,14,07,20.60
2009,06,10,14,08,20.60
2009,06,10,14,09,20.60
2009,06,10,14,10,20.80
2009,06,10,14,11,20.80
2009,06,10,14,12,21.00
2009,06,10,14,13,21.00
2009,06,10,14,14,21.10
2009,06,10,14,15,21.20
2009,06,10,14,16,21.30
2009,06,10,14,17,21.30
2009,06,10,14,18,21.40
2009,06,10,14,19,21.50
2009,06,10,14,20,21.60
2009,06,10,14,21,21.60
2009,06,10,14,22,21.70
2009,06,10,14,23,21.70
2009,06,10,14,24,21.60
2009,06,10,14,25,21.60
2009,06,10,14,26,21.40
2009,06,10,14,27,21.30
2009,06,10,14,28,21.30
2009,06,10,14,29,21.20
2009,06,10,14,30,21.30
2009,06,10,14,31,21.30
2009,06,10,14,32,21.30
2009,06,10,14,33,21.30
2009,06,10,14,34,21.20
2009,06,10,14,35,21.10
2009,06,10,14,36,21.00
2009,06,10,14,37,20.90
2009,06,10,14,38,21.00
2009,06,10,14,39,21.00
2009,06,10,14,40,21.00
2009,06,10,14,41,21.00
2009,06,10,14,42,21.00
2009,06,10,14,43,20.90
2009,06,10,14,44,20.90
2009,06,10,14,45,20.90
2009,06,10,14,46,20.90
2009,06,10,14,47,20.90
2009,06,10,14,48,20.90
2009,06,10,14,49,21.00
2009,06,10,14,50,21.00
2009,06,10,14,51,20.90
2009,06,10,14,52,20.80
2009,06,10,14,53,20.80
2009,06,10,14,54,20.70
2009,06,10,14,55,20.60
2009,06,10,14,56,20.70
2009,06,10,14,57,20.80
2009,06,10,14,58,20.90
2009,06,10,14,59,20.90
2009,06,10,15,00,21.00
2009,06,10,15,01,21.10
2009,06,10,15,02,21.00
2009,06,10,15,03,21.00
2009,06,10,15,04,21.00
2009,06,10,15,05,21.10
2009,06,10,15,06,21.20
2009,06,10,15,07,21.10
2009,06,10,15,08,21.10
2009,06,10,15,09,21.00
2009,06,10,15,10,20.90
2009,06,10,15,11,20.70
2009,06,10,15,12,20.60
2009,06,10,15,13,20.70
2009,06,10,15,14,20.60
2009,06,10,15,15,20.60
2009,06,10,15,16,20.70
2009,06,10,15,17,20.90
2009,06,10,15,18,21.00
2009,06,10,15,19,21.20
2009,06,10,15,20,21.30
2009,06,10,15,21,21.30
2009,06,10,15,22,21.20
2009,06,10,15,23,21.20
2009,06,10,15,24,21.10
2009,06,10,15,25,21.10
2009,06,10,15,26,21.20
2009,06,10,15,27,21.30
2009,06,10,15,28,21.40
2009,06,10,15,29,21.40
2009,06,10,15,30,21.40
2009,06,10,15,31,21.30
2009,06,10,15,32,21.30
2009,06,10,15,33,21.30
2009,06,10,15,34,21.30
2009,06,10,15,35,21.30
2009,06,10,15,36,21.30
2009,06,10,15,37,21.30
2009,06,10,15,38,21.30
2009,06,10,15,39,21.30
2009,06,10,15,40,21.40
2009,06,10,15,41,21.40
2009,06,10,15,42,21.50
2009,06,10,15,43,21.60
2009,06,10,15,44,21.60
2009,06,10,15,45,21.60
2009,06,10,15,46,21.60
2009,06,10,15,47,21.60
2009,06,10,15,48,21.60
2009,06,10,15,49,21.60
2009,06,10,15,50,21.70
2009,06,10,15,51,21.70
2009,06,10,15,52,21.70
2009,06,10,15,53,21.80
2009,06,10,15,54,21.70
2009,06,10,15,55,21.80
2009,06,10,15,56,21.80
2009,06,10,15,57,21.90
2009,06,10,15,58,21.90
2009,06,10,15,59,21.90
2009,06,10,16,00,21.90
2009,06,10,16,01,21.90
2009,06,10,16,02,21.80
2009,06,10,16,03,21.80
2009,06,10,16,04,21.70
2009,06,10,16,05,21.70
2009,06,10,16,06,21.80
2009,06,10,16,07,21.70
2009,06,10,16,08,21.70
2009,06,10,16,09,21.70
2009,06,10,16,10,21.70
2009,06,10,16,11,21.80
2009,06,10,16,12,21.90
2009,06,10,16,13,22.00
2009,06,10,16,14,22.10
2009,06,10,16,15,22.00
2009,06,10,16,16,22.00
2009,06,10,16,17,22.00
2009,06,10,16,18,21.90
2009,06,10,16,19,21.90
2009,06,10,16,20,21.90
2009,06,10,16,21,22.00
2009,06,10,16,22,22.00
2009,06,10,16,23,22.00
2009,06,10,16,24,22.00
2009,06,10,16,25,22.10
2009,06,10,16,26,22.10
2009,06,10,16,27,22.00
2009,06,10,16,28,22.00
2009,06,10,16,29,22.00
2009,06,10,16,30,22.10
2009,06,10,16,31,22.20
2009,06,10,16,32,22.30
2009,06,10,16,33,22.20
2009,06,10,16,34,22.20
2009,06,10,16,35,22.10
2009,06,10,16,36,22.10
2009,06,10,16,37,22.10
2009,06,10,16,38,22.10
2009,06,10,16,39,22.20
2009,06,10,16,40,22.20
2009,06,10,16,41,22.10
2009,06,10,16,42,22.10
2009,06,10,16,43,22.20
2009,06,10,16,44,22.10
2009,06,10,16,45,22.20
2009,06,10,16,46,22.30
2009,06,10,16,47,22.30
2009,06,10,16,48,22.40
2009,06,10,16,49,22.40
2009,06,10,16,50,22.40
2009,06,10,16,51,22.40
2009,06,10,16,52,22.30
2009,06,10,16,53,22.20
2009,06,10,16,54,22.20
2009,06,10,16,55,22.10
2009,06,10,16,56,22.10
2009,06,10,16,57,22.10
2009,06,10,16,58,22.20
2009,06,10,16,59,22.30
2009,06,10,17,00,22.30
2009,06,10,17,01,22.20
2009,06,10,17,02,22.20
2009,06,10,17,03,22.30
2009,06,10,17,04,22.20
2009,06,10,17,05,22.20
2009,06,10,17,06,22.10
2009,06,10,17,07,22.10
2009,06,10,17,08,22.10
2009,06,10,17,09,22.10
2009,06,10,17,10,22.10
2009,06,10,17,11,22.00
2009,06,10,17,12,22.00
2009,06,10,17,13,22.10
2009,06,10,17,14,22.10
2009,06,10,17,15,22.00
2009,06,10,17,16,21.90
2009,06,10,17,17,21.80
2009,06,10,17,18,21.80
2009,06,10,17,19,21.60